Date String (YYYY-MM-DD hh:mm:ss) UTC,Instrument flags,Ambient pressure (hPa),Sample flow (lpm),Bypass flow (lpm),Sample temperature (°C),Ambient temperature (°C),ASC tube jacket temperature (°C),LED temperature (°C),Box temperature (°C),Sample RH (%),Span deviation,Mass concentration (μg/m³),Mass concentration (μg/m³),Mass concentration (μg/m³)
DateTimeUTC,F1_M11,P_M11,Q1_M11,Q2_M11,T1_M11,T2_M11,T3_M11,T4_M11,T5_M11,U1_M11,ZSPAN_M11,X0_M11,X2_M11,X1_M11
2022-07-02 05:00:00,,0829.0,5.01,0.00,29.6,28.6,00.0,38.4,31.6,27.9,0000.0,0008.50,0004.25,0003.36
2022-07-02 05:01:00,,0829.1,4.99,0.00,29.6,28.6,00.0,38.4,31.6,27.9,0000.0,0008.34,0004.24,0003.38
2022-07-02 05:02:00,,0829.1,5.00,0.00,29.7,28.7,00.0,38.4,31.7,27.9,0000.0,0008.21,0004.22,0003.39
2022-07-02 05:03:00,,0829.0,5.00,0.00,29.7,28.7,00.0,38.4,31.7,27.8,0000.0,0008.14,0004.23,0003.40
2022-07-02 05:04:00,,0828.9,5.00,0.00,29.7,28.8,00.0,38.4,31.7,27.8,0000.0,0008.16,0004.24,0003.41
2022-07-02 05:05:00,,0828.8,5.00,0.00,29.8,28.8,00.0,38.5,31.8,27.8,0000.0,0008.13,0004.22,0003.41
2022-07-02 05:06:00,,0828.8,5.00,0.00,29.8,28.9,00.0,38.5,31.8,27.9,0000.0,0008.11,0004.20,0003.40
2022-07-02 05:07:00,,0829.1,5.00,0.00,29.8,28.9,00.0,38.5,31.8,27.9,0000.0,0008.05,0004.19,0003.42
2022-07-02 05:08:00,,0829.0,5.00,0.00,29.8,28.8,00.0,38.5,31.8,27.9,0000.0,0008.01,0004.16,0003.43
2022-07-02 05:09:00,,0828.9,5.00,0.00,29.8,28.1,00.0,38.5,31.7,27.5,0000.0,0008.11,0004.17,0003.44
2022-07-02 05:10:00,,0829.1,5.00,0.00,29.8,27.5,00.0,38.4,31.6,27.3,0000.0,0008.45,0004.22,0003.45
2022-07-02 05:11:00,,0828.9,5.02,0.00,29.7,27.4,00.0,38.4,31.5,27.4,0000.0,0008.60,0004.18,0003.44
2022-07-02 05:12:00,,0829.0,4.99,0.00,29.6,27.5,00.0,38.4,31.4,27.8,0000.0,0008.83,0004.19,0003.44
2022-07-02 05:13:00,,0828.9,4.99,0.00,29.6,27.6,00.0,38.4,31.4,28.1,0000.0,0008.75,0004.17,0003.44
2022-07-02 05:14:00,,0828.8,5.00,0.00,29.6,27.7,00.0,38.4,31.4,27.8,0000.0,0008.83,0004.20,0003.43
2022-07-02 05:15:00,,0829.0,4.99,0.00,29.6,27.9,00.0,38.4,31.4,27.8,0000.0,0008.89,0004.20,0003.39
2022-07-02 05:16:00,,0828.9,4.99,0.00,29.6,28.0,00.0,38.4,31.5,28.4,0000.0,0008.85,0004.18,0003.34
2022-07-02 05:17:00,,0829.1,5.00,0.00,29.6,28.1,00.0,38.4,31.5,28.8,0000.0,0008.99,0004.18,0003.30
2022-07-02 05:18:00,,0829.0,5.01,0.00,29.6,28.2,00.0,38.4,31.5,28.9,0000.0,0009.03,0004.17,0003.25
2022-07-02 05:19:00,,0828.9,5.00,0.00,29.6,28.3,00.0,38.4,31.5,28.8,0000.0,0008.98,0004.12,0003.21
2022-07-02 05:20:00,,0829.2,4.99,0.00,29.6,28.4,00.0,38.4,31.5,28.7,0000.0,0008.96,0004.07,0003.16
2022-07-02 05:21:00,,0829.2,5.00,0.00,29.6,28.5,00.0,38.4,31.6,28.6,0000.0,0008.52,0003.97,0003.10
2022-07-02 05:22:00,,0828.8,5.00,0.00,29.7,28.5,00.0,38.4,31.6,28.4,0000.0,0008.18,0003.91,0003.03
2022-07-02 05:23:00,,0828.7,5.00,0.00,29.7,28.6,00.0,38.4,31.6,28.4,0000.0,0007.81,0003.84,0002.96
2022-07-02 05:24:00,,0828.7,5.00,0.00,29.7,28.7,00.0,38.4,31.7,28.3,0000.0,0007.77,0003.81,0002.87
2022-07-02 05:25:00,,0828.8,5.01,0.00,29.7,28.7,00.0,38.4,31.7,28.3,0000.0,0007.65,0003.71,0002.77
2022-07-02 05:26:00,,0829.2,5.00,0.00,29.7,28.8,00.0,38.5,31.7,28.3,0000.0,0007.60,0003.67,0002.75
2022-07-02 05:27:00,,0829.1,4.99,0.00,29.8,28.8,00.0,38.5,31.7,28.2,0000.0,0007.58,0003.64,0002.76
2022-07-02 05:28:00,,0829.2,5.00,0.00,29.8,28.8,00.0,38.5,31.8,28.0,0000.0,0007.84,0003.61,0002.75
2022-07-02 05:29:00,,0828.7,5.01,0.00,29.8,28.9,00.0,38.5,31.8,27.9,0000.0,0007.79,0003.57,0002.73
2022-07-02 05:30:00,,0828.9,5.00,0.00,29.8,28.9,00.0,38.5,31.8,27.8,0000.0,0007.85,0003.58,0002.75
2022-07-02 05:31:00,,0828.9,5.00,0.00,29.8,28.9,00.0,38.6,31.8,27.8,0000.0,0008.23,0003.58,0002.75
2022-07-02 05:32:00,,0829.0,5.00,0.00,29.9,28.9,00.0,38.6,31.9,27.7,0000.0,0009.06,0003.62,0002.77
2022-07-02 05:33:00,,0828.9,5.01,0.00,29.9,28.5,00.0,38.5,31.8,27.7,0000.0,0009.19,0003.67,0002.79
2022-07-02 05:34:00,,0829.0,5.01,0.00,29.8,27.7,00.0,38.5,31.7,27.7,0000.0,0009.41,0003.72,0002.80
2022-07-02 05:35:00,,0828.9,4.99,0.00,29.8,27.4,00.0,38.5,31.6,27.8,0000.0,0009.40,0003.70,0002.80
2022-07-02 05:36:00,,0828.9,5.00,0.00,29.7,27.4,00.0,38.5,31.4,27.9,0000.0,0009.57,0003.76,0002.82
2022-07-02 05:37:00,,0828.8,5.00,0.00,29.6,27.5,00.0,38.5,31.4,28.0,0000.0,0009.67,0003.77,0002.83
2022-07-02 05:38:00,,0829.2,5.01,0.00,29.6,27.6,00.0,38.4,31.4,28.0,0000.0,0009.73,0003.78,0002.84
2022-07-02 05:39:00,,0829.2,5.00,0.00,29.6,27.8,00.0,38.4,31.4,28.0,0000.0,0009.55,0003.81,0002.84
2022-07-02 05:40:00,,0829.2,5.00,0.00,29.6,27.9,00.0,38.4,31.4,28.0,0000.0,0009.47,0003.81,0002.85
2022-07-02 05:41:00,,0829.1,5.00,0.00,29.6,28.0,00.0,38.4,31.5,28.0,0000.0,0009.43,0003.82,0002.84
2022-07-02 05:42:00,,0828.7,5.00,0.00,29.6,28.1,00.0,38.4,31.5,28.0,0000.0,0008.88,0003.80,0002.83
2022-07-02 05:43:00,,0828.7,5.00,0.00,29.6,28.2,00.0,38.4,31.5,27.9,0000.0,0008.63,0003.79,0002.81
2022-07-02 05:44:00,,0828.8,5.01,0.00,29.6,28.3,00.0,38.4,31.5,27.9,0000.0,0008.72,0003.76,0002.79
2022-07-02 05:45:00,,0828.9,4.99,0.00,29.6,28.4,00.0,38.4,31.5,28.0,0000.0,0008.58,0003.71,0002.77
2022-07-02 05:46:00,,0828.9,5.01,0.00,29.6,28.4,00.0,38.4,31.6,28.0,0000.0,0008.61,0003.72,0002.77
2022-07-02 05:47:00,,0829.2,5.01,0.00,29.6,28.5,00.0,38.4,31.6,28.0,0000.0,0008.41,0003.69,0002.79
2022-07-02 05:48:00,,0829.3,4.99,0.00,29.7,28.6,00.0,38.4,31.6,28.0,0000.0,0008.29,0003.69,0002.79
2022-07-02 05:49:00,,0829.2,5.01,0.00,29.7,28.6,00.0,38.4,31.6,28.0,0000.0,0008.11,0003.67,0002.79
2022-07-02 05:50:00,,0829.2,5.00,0.00,29.7,28.6,00.0,38.5,31.7,28.0,0000.0,0007.97,0003.70,0002.81
2022-07-02 05:51:00,,0829.3,5.00,0.00,29.7,28.7,00.0,38.5,31.7,28.1,0000.0,0007.94,0003.72,0002.83
2022-07-02 05:52:00,,0829.3,5.00,0.00,29.7,28.7,00.0,38.5,31.7,28.2,0000.0,0008.09,0003.80,0002.85
2022-07-02 05:53:00,,0828.9,4.99,0.00,29.7,28.7,00.0,38.5,31.7,28.3,0000.0,0008.32,0003.86,0002.88
2022-07-02 05:54:00,,0828.7,5.00,0.00,29.7,28.8,00.0,38.5,31.7,28.2,0000.0,0008.31,0003.86,0002.90
2022-07-02 05:55:00,,0828.7,5.00,0.00,29.8,28.8,00.0,38.5,31.7,28.2,0000.0,0008.22,0003.90,0002.93
2022-07-02 05:56:00,,0828.7,5.00,0.00,29.8,28.8,00.0,38.5,31.7,28.1,0000.0,0008.32,0003.96,0002.96
2022-07-02 05:57:00,,0828.7,5.01,0.00,29.8,28.8,00.0,38.5,31.7,27.9,0000.0,0008.32,0003.96,0002.98
2022-07-02 05:58:00,,0828.7,5.00,0.00,29.8,28.8,00.0,38.6,31.8,27.9,0000.0,0008.34,0003.98,0002.99
2022-07-02 05:59:00,,0828.7,5.00,0.00,29.8,28.9,00.0,38.6,31.7,28.0,0000.0,0008.37,0003.99,0002.99
